Time,TemperatureF,DewpointF,PressureIn,WindDirection,WindDirectionDegrees,WindSpeedMPH,WindSpeedGustMPH,Humidity,HourlyPrecipIn,Conditions,Clouds,dailyrainin,SoftwareType,DateUTC
2013-02-08 06:50:00,25.6,21.7,30.03,NE,38,3.0,4.0,85,0.00,,,0.00,Wunderground v.1.15,2013-02-08 11:50:00,
2013-02-08 07:00:00,25.8,21.9,30.03,NE,43,4.0,4.0,85,0.00,,,0.00,Wunderground v.1.15,2013-02-08 12:00:00,
2013-02-08 07:10:00,26.0,22.1,30.03,NNE,28,3.0,3.0,85,0.00,,,0.00,Wunderground v.1.15,2013-02-08 12:10:00,
2013-02-08 07:20:00,26.2,22.3,30.03,NNE,22,4.0,4.0,85,0.00,,,0.00,Wunderground v.1.15,2013-02-08 12:20:00,
2013-02-08 07:30:00,26.5,22.6,30.02,NE,41,4.0,4.0,85,0.00,,,0.00,Wunderground v.1.15,2013-02-08 12:30:00,
2013-02-08 07:40:00,26.5,22.6,30.01,North,355,5.0,5.0,85,0.00,,,0.00,Wunderground v.1.15,2013-02-08 12:40:00,
2013-02-08 07:50:00,26.5,22.3,30.01,NE,40,4.0,4.0,84,0.00,,,0.00,Wunderground v.1.15,2013-02-08 12:50:00,
2013-02-08 08:00:00,26.6,22.7,30.00,NNE,31,4.0,4.0,85,0.00,,,0.00,Wunderground v.1.15,2013-02-08 13:00:00,
2013-02-08 08:10:00,26.6,22.7,30.00,NNE,19,4.0,4.0,85,0.00,,,0.00,Wunderground v.1.15,2013-02-08 13:10:00,
2013-02-08 08:30:00,26.8,22.9,29.99,NNE,30,5.0,6.0,85,0.00,,,0.00,Wunderground v.1.15,2013-02-08 13:30:00,
2013-02-08 08:40:00,26.9,23.0,29.99,NNE,22,5.0,5.0,85,0.00,,,0.00,Wunderground v.1.15,2013-02-08 13:40:00,
2013-02-08 08:50:00,27.1,23.2,29.98,North,11,4.0,6.0,85,0.00,,,0.00,Wunderground v.1.15,2013-02-08 13:50:00,
2013-02-08 09:00:00,27.1,23.7,29.98,NNE,28,5.0,5.0,87,0.00,,,0.00,Wunderground v.1.15,2013-02-08 14:00:00,
2013-02-08 09:10:00,27.1,24.0,29.98,NE,35,5.0,5.0,88,0.00,,,0.00,Wunderground v.1.15,2013-02-08 14:10:00,
2013-02-08 09:20:00,27.2,24.4,29.97,NE,37,4.0,5.0,89,0.00,,,0.00,Wunderground v.1.15,2013-02-08 14:20:00,
2013-02-08 09:30:00,27.4,24.9,29.97,ENE,67,4.0,4.0,90,0.00,,,0.00,Wunderground v.1.15,2013-02-08 14:30:00,
2013-02-08 09:40:00,27.5,25.0,29.97,NE,37,5.0,5.0,90,0.00,,,0.00,Wunderground v.1.15,2013-02-08 14:40:00,
2013-02-08 09:50:00,27.6,25.1,29.96,NE,44,4.0,4.0,90,0.00,,,0.00,Wunderground v.1.15,2013-02-08 14:50:00,
2013-02-08 10:00:00,27.7,25.2,29.96,NNE,31,5.0,6.0,90,0.00,,,0.00,Wunderground v.1.15,2013-02-08 15:00:00,
2013-02-08 10:10:00,27.9,25.3,29.95,ENE,69,5.0,5.0,90,0.00,,,0.00,Wunderground v.1.15,2013-02-08 15:10:00,
2013-02-08 10:20:00,28.0,25.4,29.94,NE,34,5.0,5.0,90,0.00,,,0.00,Wunderground v.1.15,2013-02-08 15:20:00,
2013-02-08 10:30:00,28.1,25.5,29.93,NE,50,6.0,6.0,90,0.00,,,0.00,Wunderground v.1.15,2013-02-08 15:30:00,
2013-02-08 10:40:00,28.2,25.9,29.92,NE,37,5.0,9.0,91,0.00,,,0.00,Wunderground v.1.15,2013-02-08 15:40:00,
2013-02-08 10:50:00,28.3,25.7,29.92,NNE,32,5.0,10.0,90,0.00,,,0.00,Wunderground v.1.15,2013-02-08 15:50:00,
2013-02-08 11:00:00,28.5,26.2,29.91,NE,34,6.0,7.0,91,0.00,,,0.00,Wunderground v.1.15,2013-02-08 16:00:00,
2013-02-08 11:10:00,28.6,26.0,29.90,NE,55,6.0,6.0,90,0.00,,,0.00,Wunderground v.1.15,2013-02-08 16:10:00,
2013-02-08 11:20:00,28.7,26.1,29.89,NNE,26,5.0,6.0,90,0.00,,,0.00,Wunderground v.1.15,2013-02-08 16:20:00,
2013-02-08 11:30:00,28.7,26.4,29.87,NNE,28,5.0,9.0,91,0.00,,,0.00,Wunderground v.1.15,2013-02-08 16:30:00,
2013-02-08 11:40:00,28.7,26.4,29.86,NNE,32,6.0,6.0,91,0.00,,,0.00,Wunderground v.1.15,2013-02-08 16:40:00,
2013-02-08 11:50:00,28.7,26.4,29.85,NNE,18,6.0,6.0,91,0.00,,,0.00,Wunderground v.1.15,2013-02-08 16:50:00,
2013-02-08 12:00:00,28.8,26.8,29.84,NNE,24,6.0,6.0,92,0.00,,,0.00,Wunderground v.1.15,2013-02-08 17:00:00,
2013-02-08 12:10:00,28.9,26.9,29.83,NNE,19,5.0,6.0,92,0.00,,,0.00,Wunderground v.1.15,2013-02-08 17:10:00,
2013-02-08 12:20:00,29.0,27.0,29.82,NE,51,6.0,6.0,92,0.00,,,0.00,Wunderground v.1.15,2013-02-08 17:20:00,
2013-02-08 12:30:00,29.2,27.2,29.81,NNE,24,6.0,6.0,92,0.00,,,0.00,Wunderground v.1.15,2013-02-08 17:30:00,
2013-02-08 12:40:00,29.3,27.3,29.80,ENE,63,6.0,7.0,92,0.00,,,0.00,Wunderground v.1.15,2013-02-08 17:40:00,
2013-02-08 12:50:00,29.4,27.4,29.79,North,355,6.0,6.0,92,0.00,,,0.00,Wunderground v.1.15,2013-02-08 17:50:00,
2013-02-08 13:00:00,29.5,27.5,29.79,NNW,334,6.0,6.0,92,0.00,,,0.00,Wunderground v.1.15,2013-02-08 18:00:00,
2013-02-08 13:10:00,29.7,27.9,29.78,NE,46,5.0,5.0,93,0.00,,,0.00,Wunderground v.1.15,2013-02-08 18:10:00,
2013-02-08 13:20:00,29.8,28.0,29.77,NNE,32,6.0,6.0,93,0.00,,,0.00,Wunderground v.1.15,2013-02-08 18:20:00,
2013-02-08 13:30:00,29.9,28.1,29.76,NNE,26,6.0,8.0,93,0.00,,,0.00,Wunderground v.1.15,2013-02-08 18:30:00,
2013-02-08 13:40:00,30.0,28.2,29.75,North,11,6.0,6.0,93,0.00,,,0.00,Wunderground v.1.15,2013-02-08 18:40:00,
2013-02-08 13:50:00,30.0,28.2,29.74,NNE,32,6.0,9.0,93,0.00,,,0.00,Wunderground v.1.15,2013-02-08 18:50:00,
2013-02-08 14:00:00,30.0,28.2,29.72,NE,51,6.0,6.0,93,0.00,,,0.00,Wunderground v.1.15,2013-02-08 19:00:00,
2013-02-08 14:10:00,30.1,28.3,29.72,NE,38,7.0,7.0,93,0.00,,,0.00,Wunderground v.1.15,2013-02-08 19:10:00,
2013-02-08 14:20:00,30.2,28.4,29.71,NE,40,6.0,6.0,93,0.00,,,0.00,Wunderground v.1.15,2013-02-08 19:20:00,
2013-02-08 14:30:00,30.2,28.4,29.71,NE,43,6.0,6.0,93,0.00,,,0.00,Wunderground v.1.15,2013-02-08 19:30:00,
2013-02-08 14:40:00,30.2,28.4,29.70,NE,36,7.0,7.0,93,0.00,,,0.00,Wunderground v.1.15,2013-02-08 19:40:00,
2013-02-08 14:50:00,29.7,27.9,29.69,NNW,327,5.0,5.0,93,0.00,,,0.00,Wunderground v.1.15,2013-02-08 19:50:00,
2013-02-08 15:00:00,28.9,27.1,29.68,NNE,28,5.0,5.0,93,0.00,,,0.00,Wunderground v.1.15,2013-02-08 20:00:00,
2013-02-08 15:10:00,28.3,26.5,29.67,North,5,6.0,6.0,93,0.00,,,0.00,Wunderground v.1.15,2013-02-08 20:10:00,
2013-02-08 15:20:00,27.9,26.1,29.66,NNE,19,5.0,5.0,93,0.00,,,0.00,Wunderground v.1.15,2013-02-08 20:20:00,
2013-02-08 15:30:00,27.5,25.7,29.64,NNE,22,6.0,6.0,93,0.00,,,0.00,Wunderground v.1.15,2013-02-08 20:30:00,
2013-02-08 15:40:00,27.1,25.3,29.63,NE,34,6.0,7.0,93,0.00,,,0.00,Wunderground v.1.15,2013-02-08 20:40:00,
2013-02-08 15:50:00,26.7,24.9,29.62,North,360,7.0,7.0,93,0.00,,,0.00,Wunderground v.1.15,2013-02-08 20:50:00,
2013-02-08 16:00:00,26.6,24.8,29.61,NNW,348,6.0,6.0,93,0.00,,,0.00,Wunderground v.1.15,2013-02-08 21:00:00,
2013-02-08 16:10:00,26.4,24.7,29.60,NNE,28,6.0,6.0,93,0.00,,,0.00,Wunderground v.1.15,2013-02-08 21:10:00,
2013-02-08 16:20:00,26.1,24.1,29.59,North,360,7.0,7.0,92,0.00,,,0.00,Wunderground v.1.15,2013-02-08 21:20:00,
2013-02-08 16:30:00,25.7,23.7,29.59,NNE,30,7.0,7.0,92,0.00,,,0.00,Wunderground v.1.15,2013-02-08 21:30:00,
2013-02-08 16:40:00,25.5,23.5,29.57,NNW,331,7.0,7.0,92,0.00,,,0.00,Wunderground v.1.15,2013-02-08 21:40:00,
2013-02-08 16:50:00,25.5,23.8,29.57,NNE,26,7.0,8.0,93,0.00,,,0.00,Wunderground v.1.15,2013-02-08 21:50:00,
2013-02-08 17:00:00,25.5,23.8,29.57,NE,44,8.0,16.0,93,0.00,,,0.00,Wunderground v.1.15,2013-02-08 22:00:00,
2013-02-08 17:10:00,25.3,23.6,29.57,NW,313,7.0,7.0,93,0.00,,,0.00,Wunderground v.1.15,2013-02-08 22:10:00,
2013-02-08 17:20:00,25.1,23.1,29.56,NE,34,8.0,8.0,92,0.00,,,0.00,Wunderground v.1.15,2013-02-08 22:20:00,
2013-02-08 17:30:00,25.0,23.3,29.56,NNW,345,6.0,7.0,93,0.00,,,0.00,Wunderground v.1.15,2013-02-08 22:30:00,
2013-02-08 17:40:00,24.8,23.1,29.54,NE,39,7.0,10.0,93,0.00,,,0.00,Wunderground v.1.15,2013-02-08 22:40:00,
2013-02-08 17:50:00,24.6,22.9,29.53,NNE,23,7.0,7.0,93,0.00,,,0.00,Wunderground v.1.15,2013-02-08 22:50:00,
2013-02-08 18:00:00,24.3,22.6,29.53,NNE,19,7.0,9.0,93,0.00,,,0.00,Wunderground v.1.15,2013-02-08 23:00:00,
2013-02-08 18:10:00,24.1,22.4,29.53,NNE,13,7.0,7.0,93,0.00,,,0.00,Wunderground v.1.15,2013-02-08 23:10:00,
2013-02-08 18:20:00,23.9,22.2,29.52,North,360,7.0,8.0,93,0.00,,,0.00,Wunderground v.1.15,2013-02-08 23:20:00,
2013-02-08 18:30:00,23.8,22.1,29.51,NNE,27,7.0,7.0,93,0.00,,,0.00,Wunderground v.1.15,2013-02-08 23:30:00,
2013-02-08 18:40:00,23.5,21.8,29.49,NNE,30,6.0,9.0,93,0.00,,,0.00,Wunderground v.1.15,2013-02-08 23:40:00,
2013-02-08 18:50:00,23.1,21.4,29.48,NNE,17,7.0,7.0,93,0.00,,,0.00,Wunderground v.1.15,2013-02-08 23:50:00,
2013-02-08 19:00:00,22.8,21.1,29.48,NNE,28,7.0,7.0,93,0.00,,,0.00,Wunderground v.1.15,2013-02-09 00:00:00,
2013-02-08 19:10:00,22.8,21.1,29.47,NNE,15,6.0,11.0,93,0.00,,,0.00,Wunderground v.1.15,2013-02-09 00:10:00,
2013-02-08 19:20:00,22.6,20.9,29.46,NE,37,7.0,7.0,93,0.00,,,0.00,Wunderground v.1.15,2013-02-09 00:20:00,
2013-02-08 19:30:00,22.5,20.8,29.45,NNE,19,7.0,8.0,93,0.00,,,0.00,Wunderground v.1.15,2013-02-09 00:30:00,
2013-02-08 19:40:00,22.2,20.5,29.45,North,355,8.0,8.0,93,0.00,,,0.00,Wunderground v.1.15,2013-02-09 00:40:00,
2013-02-08 19:50:00,22.1,20.4,29.44,North,5,7.0,8.0,93,0.00,,,0.00,Wunderground v.1.15,2013-02-09 00:50:00,
2013-02-08 20:00:00,22.0,20.3,29.43,NNE,22,8.0,12.0,93,0.00,,,0.00,Wunderground v.1.15,2013-02-09 01:00:00,
2013-02-08 20:10:00,21.9,20.2,29.42,NNE,22,8.0,8.0,93,0.00,,,0.00,Wunderground v.1.15,2013-02-09 01:10:00,
2013-02-08 20:20:00,21.8,20.1,29.41,NNE,13,9.0,10.0,93,0.00,,,0.00,Wunderground v.1.15,2013-02-09 01:20:00,
2013-02-08 20:30:00,21.8,20.1,29.41,NNE,26,8.0,11.0,93,0.00,,,0.00,Wunderground v.1.15,2013-02-09 01:30:00,
2013-02-08 20:40:00,21.6,19.9,29.39,NNE,19,9.0,9.0,93,0.00,,,0.00,Wunderground v.1.15,2013-02-09 01:40:00,
2013-02-08 20:50:00,21.4,19.7,29.39,NE,38,9.0,10.0,93,0.00,,,0.00,Wunderground v.1.15,2013-02-09 01:50:00,
2013-02-08 21:00:00,21.3,19.3,29.38,North,11,9.0,11.0,92,0.00,,,0.00,Wunderground v.1.15,2013-02-09 02:00:00,
2013-02-08 21:10:00,21.2,19.2,29.36,North,5,9.0,9.0,92,0.00,,,0.00,Wunderground v.1.15,2013-02-09 02:10:00,
2013-02-08 21:20:00,21.1,19.4,29.35,North,355,9.0,9.0,93,0.00,,,0.00,Wunderground v.1.15,2013-02-09 02:20:00,
2013-02-08 22:20:00,20.6,18.6,29.36,NE,49,10.0,10.0,92,0.00,,,0.00,Wunderground v.1.15,2013-02-09 03:20:00,